Tracking 23760 objects as of 28-Oct-2021
HD Live streaming from Space Station
objects crossing your sky now

LATINSAT A

Track LATINSAT A now!
10-day predictions
LATINSAT A is classified as:


NORAD ID: 27612
Int'l Code: 2002-058H
Perigee: 603.7 km
Apogee: 671.5 km
Inclination: 64.6 °
Period: 97.3 minutes
Semi major axis: 7008 km
RCS: 0.0297 m2 (small)
Launch date: December 20, 2002
Source: Argentina (ARGN)
Launch site: TYURATAM MISSILE AND SPACE COMPLEX (TTMTR)

Nanosatellite; planned constellation of 48 satellites, little LEO; asset tracking and monitoring services.
aabbcc
Your satellite tracking list
Your tracking list is empty




NASA's NSSDC Master Catalog

Two Line Element Set (TLE):
1 27612U 02058H   21300.29671820  .00000069  00000-0  28445-4 0  9996
2 27612  64.5542 154.0339 0048309 311.8440  47.8544 14.79639681 16582
Source of the keplerian elements: AFSPC